Webcams

EDPO Webcam Blick Richtung Osten (local time)

Webcam-2

Info zum Bild:

  • Blick zum Kloster Mariahilf, Entfernung ca. 3km
  • Blick zur Kirche St. Johannes, Entfernung ca. 1km
  • Blick zu den beiden Windrädern, Entfernung ca. 6km

EDPO Webcam Blick Richtung Westen (local time)

Webcam-1

Info zum Bild:

  • Blick zum Tyrolsberg, Entfernung ca. 3,5km

Dillberg Webcam Blick Richtung Osten zu EDPO (local time)

Webcam-1

Info zum Bild:

  • Blick vom Dillberg Richtung Neumarkt, Höhe 555ft über EDPO

Dillberg Webcam Blick Richtung Westen zum Sender (local time)

Webcam-1

Info zum Bild:

  • Blick vom Dillberg Sender, Höhe bis Spitze 1322ft über EDPO
  • 600m Entfernung / Sichtweite von CAM zum Dillberg Sender

Sparkasse Webcam Blick Richtung Nord-West über Neumarkt


Snapshot

Info zum Bild:

Nürnberger Fernsehturm (Rundum CAM)


METAR Informationen der nächstgelegenen Flughäfen


EDDN / Flughafen Nürnberg „Albrecht Dürer“

EDDN 141020Z VRB02KT CAVOK 21/13 Q1016 NOSIG

ETIC / Fliegerhorst Grafenwöhr AAF

ETIC 141017Z AUTO 00000KT 0800 R32/0400V1500 HZ CLR 19/13 A3003 RMK AO2 VIS 0800V9999 SLP168 $

ETIH / Fliegerhorst Hohenfels AAF

ETIH 140956Z AUTO 08003KT 9999 CLR 18/18 A3005 RMK AO2 SLP174 T01830181 $